FJI211 NFFN-NFTF

Flight info

Callsign FJI211
Flight time 1h 17m
Altitude 37000
Route ECHO NA B598 HOBAT HOBAT1A
Aircraft B38M/M-SDE1FGHILORVWXY/HB1

Departure

Time 2026-04-29 03:26
Airport Nadi International Airport (NFFN)

Arrival

Time 2026-04-29 04:43
Airport Fua'amotu International Airport (NFTF)
Time Latitude Longitude Altitude Speed Heading
2026-04-29 02:58 -17.75216 177.45171 49 ft 0 kts 194°
2026-04-29 03:06 -17.75213 177.45172 49 ft 3 kts 195°
2026-04-29 03:06 -17.75187 177.45179 49 ft 4 kts 200°
2026-04-29 03:06 -17.75163 177.45191 49 ft 4 kts 216°
2026-04-29 03:06 -17.75150 177.45208 49 ft 4 kts 278°
2026-04-29 03:07 -17.75151 177.45213 49 ft 0 kts 325°
2026-04-29 03:10 -17.75151 177.45212 49 ft 1 kts 325°
2026-04-29 03:11 -17.75127 177.45194 49 ft 9 kts 325°
2026-04-29 03:11 -17.75076 177.45121 49 ft 15 kts 289°
2026-04-29 03:11 -17.75052 177.45027 49 ft 10 kts 285°
2026-04-29 03:11 -17.75083 177.44968 47 ft 11 kts 198°
2026-04-29 03:12 -17.75163 177.44946 49 ft 13 kts 194°
2026-04-29 03:12 -17.75257 177.44921 49 ft 15 kts 194°
2026-04-29 03:12 -17.75368 177.44920 49 ft 17 kts 175°
2026-04-29 03:12 -17.75483 177.44902 49 ft 11 kts 194°
2026-04-29 03:13 -17.75507 177.44896 49 ft 0 kts 194°
2026-04-29 03:19 -17.75507 177.44895 49 ft 0 kts 194°
2026-04-29 03:20 -17.75540 177.44888 47 ft 11 kts 192°
2026-04-29 03:20 -17.75590 177.44802 49 ft 20 kts 279°
2026-04-29 03:20 -17.75551 177.44634 49 ft 27 kts 284°
2026-04-29 03:20 -17.75504 177.44436 48 ft 25 kts 284°
2026-04-29 03:21 -17.75561 177.44285 48 ft 25 kts 219°
2026-04-29 03:21 -17.75701 177.44172 48 ft 27 kts 218°
2026-04-29 03:21 -17.75863 177.44042 48 ft 32 kts 218°
2026-04-29 03:21 -17.76049 177.43892 49 ft 37 kts 217°
2026-04-29 03:22 -17.76260 177.43723 49 ft 39 kts 217°
2026-04-29 03:22 -17.76476 177.43548 49 ft 39 kts 217°
2026-04-29 03:22 -17.76695 177.43373 48 ft 40 kts 218°
2026-04-29 03:22 -17.76917 177.43195 49 ft 40 kts 217°
2026-04-29 03:23 -17.77128 177.43025 49 ft 32 kts 218°
2026-04-29 03:23 -17.77242 177.42893 49 ft 23 kts 249°
2026-04-29 03:23 -17.77306 177.42870 47 ft 6 kts 85°
2026-04-29 03:23 -17.77274 177.42908 46 ft 8 kts 38°
2026-04-29 03:24 -17.77266 177.42915 49 ft 0 kts 38°
2026-04-29 03:25 -17.77176 177.42988 49 ft 49 kts 37°
2026-04-29 03:25 -17.76716 177.43354 48 ft 117 kts 38°
2026-04-29 03:26 -17.75910 177.44003 48 ft 174 kts 37°
2026-04-29 03:26 -17.74884 177.44836 570 ft 192 kts 36°
2026-04-29 03:26 -17.73687 177.45480 1368 ft 199 kts
2026-04-29 03:26 -17.72287 177.45342 1983 ft 215 kts 334°
2026-04-29 03:27 -17.71097 177.44350 2696 ft 225 kts 309°
2026-04-29 03:27 -17.70365 177.42795 3112 ft 253 kts 284°
2026-04-29 03:27 -17.70477 177.41032 4393 ft 232 kts 249°
2026-04-29 03:27 -17.71413 177.39761 5588 ft 219 kts 217°
2026-04-29 03:28 -17.72615 177.38742 6272 ft 227 kts 214°
2026-04-29 03:28 -17.73545 177.38198 6568 ft 236 kts 199°
2026-04-29 03:28 -17.75134 177.37612 7148 ft 245 kts 197°
2026-04-29 03:28 -17.76740 177.37045 8000 ft 243 kts 196°
2026-04-29 03:29 -17.78357 177.36486 8725 ft 249 kts 196°
2026-04-29 03:29 -17.80014 177.35919 9418 ft 252 kts 196°
2026-04-29 03:29 -17.81692 177.35349 10105 ft 255 kts 196°
2026-04-29 03:29 -17.83392 177.34774 10821 ft 257 kts 196°
2026-04-29 03:30 -17.85135 177.34352 11558 ft 257 kts 179°
2026-04-29 03:30 -17.86882 177.34638 12330 ft 257 kts 158°
2026-04-29 03:30 -17.88429 177.35584 12982 ft 260 kts 137°
2026-04-29 03:30 -17.89584 177.37051 13703 ft 264 kts 119°
2026-04-29 03:31 -17.90716 177.40840 14783 ft 287 kts 102°
2026-04-29 03:31 -17.91097 177.42963 15150 ft 305 kts 100°
2026-04-29 03:31 -17.91445 177.45229 15481 ft 324 kts 98°
2026-04-29 03:32 -17.91774 177.47600 15789 ft 341 kts 98°
2026-04-29 03:32 -17.92147 177.50124 16084 ft 358 kts 99°
2026-04-29 03:32 -17.92500 177.52766 16400 ft 372 kts 97°
2026-04-29 03:32 -17.92806 177.55518 16729 ft 385 kts 97°
2026-04-29 03:33 -17.93136 177.58345 17147 ft 392 kts 97°
2026-04-29 03:33 -17.93476 177.61190 17750 ft 395 kts 97°
2026-04-29 03:33 -17.93825 177.64077 18218 ft 401 kts 97°
2026-04-29 03:33 -17.94178 177.66993 18756 ft 404 kts 97°
2026-04-29 03:34 -17.94533 177.69936 19202 ft 409 kts 97°
2026-04-29 03:34 -17.94894 177.72916 19677 ft 413 kts 97°
2026-04-29 03:34 -17.95258 177.75927 20145 ft 417 kts 97°
2026-04-29 03:34 -17.95624 177.78967 20589 ft 420 kts 97°
2026-04-29 03:35 -17.95987 177.81984 21027 ft 424 kts 97°
2026-04-29 03:35 -17.96360 177.85077 21448 ft 428 kts 96°
2026-04-29 03:35 -17.96734 177.88190 21862 ft 431 kts 96°
2026-04-29 03:35 -17.97111 177.91335 22246 ft 435 kts 96°
2026-04-29 03:36 -17.97490 177.94500 22653 ft 438 kts 96°
2026-04-29 03:36 -17.97873 177.97692 23023 ft 442 kts 96°
2026-04-29 03:36 -17.98256 178.00901 23395 ft 444 kts 96°
2026-04-29 03:36 -17.98641 178.04133 23745 ft 447 kts 96°
2026-04-29 03:37 -17.99029 178.07384 24056 ft 451 kts 96°
2026-04-29 03:37 -17.99420 178.10671 24420 ft 453 kts 96°
2026-04-29 03:37 -17.99811 178.13960 24756 ft 455 kts 96°
2026-04-29 03:37 -18.00204 178.17274 25096 ft 458 kts 96°
2026-04-29 03:38 -18.00594 178.20567 25414 ft 461 kts 96°
2026-04-29 03:38 -18.00990 178.23915 25739 ft 464 kts 96°
2026-04-29 03:38 -18.01389 178.27290 26060 ft 467 kts 96°
2026-04-29 03:38 -18.01788 178.30682 26430 ft 468 kts 96°
2026-04-29 03:39 -18.02189 178.34086 26729 ft 471 kts 96°
2026-04-29 03:39 -18.02593 178.37518 27008 ft 474 kts 96°
2026-04-29 03:39 -18.02997 178.40959 27335 ft 476 kts 96°
2026-04-29 03:39 -18.03402 178.44422 27652 ft 478 kts 96°
2026-04-29 03:40 -18.03809 178.47894 27946 ft 481 kts 96°
2026-04-29 03:40 -18.04220 178.51408 28235 ft 483 kts 96°
2026-04-29 03:40 -18.04763 178.54896 28487 ft 486 kts 105°
2026-04-29 03:40 -18.06041 178.58179 28809 ft 487 kts 118°
2026-04-29 03:41 -18.07598 178.61306 29034 ft 491 kts 118°
2026-04-29 03:41 -18.09198 178.64483 29314 ft 492 kts 118°
2026-04-29 03:41 -18.10823 178.67665 29594 ft 494 kts 118°
2026-04-29 03:41 -18.12462 178.70848 29814 ft 497 kts 118°
2026-04-29 03:42 -18.14112 178.74051 30075 ft 499 kts 118°
2026-04-29 03:42 -18.15769 178.77264 30378 ft 499 kts 118°
2026-04-29 03:42 -18.17421 178.80470 30754 ft 498 kts 118°
2026-04-29 03:42 -18.19068 178.83666 31129 ft 497 kts 118°
2026-04-29 03:43 -18.20714 178.86864 31496 ft 496 kts 118°
2026-04-29 03:43 -18.22355 178.90053 31864 ft 495 kts 118°
2026-04-29 03:43 -18.23992 178.93232 32244 ft 494 kts 119°
2026-04-29 03:43 -18.25626 178.96313 32576 ft 494 kts 120°
2026-04-29 03:44 -18.27339 178.99536 32928 ft 493 kts 120°
2026-04-29 03:44 -18.29009 179.02686 33300 ft 492 kts 120°
2026-04-29 03:44 -18.30673 179.05826 33632 ft 492 kts 120°
2026-04-29 03:44 -18.32338 179.08972 33957 ft 491 kts 120°
2026-04-29 03:45 -18.33999 179.12112 34295 ft 490 kts 120°
2026-04-29 03:45 -18.35657 179.15246 34639 ft 490 kts 120°
2026-04-29 03:45 -18.37313 179.18381 34966 ft 489 kts 120°
2026-04-29 03:45 -18.38966 179.21510 35281 ft 488 kts 120°
2026-04-29 03:46 -18.40617 179.24636 35576 ft 488 kts 120°
2026-04-29 03:46 -18.42244 179.27719 35848 ft 488 kts 120°
2026-04-29 03:46 -18.43898 179.30856 36114 ft 487 kts 120°
2026-04-29 03:46 -18.45544 179.33977 36388 ft 487 kts 120°
2026-04-29 03:47 -18.47187 179.37095 36633 ft 487 kts 120°
2026-04-29 03:47 -18.48833 179.40221 36881 ft 486 kts 121°
2026-04-29 03:47 -18.50474 179.43338 36983 ft 488 kts 120°
2026-04-29 03:47 -18.52115 179.46458 36958 ft 486 kts 120°
2026-04-29 03:48 -18.55394 179.52693 36962 ft 486 kts 120°
2026-04-29 03:48 -18.58648 179.58890 36962 ft 486 kts 120°
2026-04-29 03:49 -18.61916 179.65118 36962 ft 486 kts 120°
2026-04-29 03:49 -18.65190 179.71364 36962 ft 486 kts 120°
2026-04-29 03:50 -18.68449 179.77588 36962 ft 485 kts 120°
2026-04-29 03:50 -18.71720 179.83842 36962 ft 486 kts 120°
2026-04-29 03:51 -18.74965 179.90051 36963 ft 486 kts 120°
2026-04-29 03:51 -18.78203 179.96252 36970 ft 486 kts 120°
2026-04-29 03:52 -18.81460 -179.97473 36972 ft 486 kts 120°
2026-04-29 03:52 -18.84697 -179.91213 36963 ft 486 kts 120°
2026-04-29 03:53 -18.87935 -179.84948 36962 ft 486 kts 120°
2026-04-29 03:53 -18.91135 -179.78750 36960 ft 486 kts 120°
2026-04-29 03:54 -18.94367 -179.72482 36962 ft 486 kts 120°
2026-04-29 03:54 -18.97578 -179.66249 36962 ft 485 kts 120°
2026-04-29 03:55 -19.00809 -179.59972 36962 ft 485 kts 120°
2026-04-29 03:55 -19.04031 -179.53704 36962 ft 485 kts 120°
2026-04-29 03:56 -19.07253 -179.47431 36961 ft 485 kts 120°
2026-04-29 03:56 -19.10473 -179.41155 36963 ft 485 kts 120°
2026-04-29 03:57 -19.13694 -179.34870 36962 ft 485 kts 120°
2026-04-29 03:57 -19.16892 -179.28624 36962 ft 485 kts 120°
2026-04-29 03:58 -19.20073 -179.22403 36961 ft 485 kts 120°
2026-04-29 03:58 -19.23282 -179.16124 36963 ft 485 kts 120°
2026-04-29 03:59 -19.26491 -179.09835 36962 ft 485 kts 120°
2026-04-29 03:59 -19.29680 -179.03580 36962 ft 485 kts 120°
2026-04-29 04:00 -19.32887 -178.97282 36962 ft 485 kts 120°
2026-04-29 04:00 -19.36092 -178.90984 36961 ft 485 kts 120°
2026-04-29 04:01 -19.39291 -178.84689 36962 ft 486 kts 121°
2026-04-29 04:01 -19.42494 -178.78379 36962 ft 486 kts 120°
2026-04-29 04:02 -19.45693 -178.72070 36962 ft 485 kts 121°
2026-04-29 04:02 -19.48884 -178.65771 36962 ft 486 kts 121°
2026-04-29 04:03 -19.52063 -178.59489 36962 ft 486 kts 121°
2026-04-29 04:03 -19.55258 -178.53172 36961 ft 486 kts 121°
2026-04-29 04:04 -19.58417 -178.46916 36960 ft 487 kts 121°
2026-04-29 04:04 -19.61619 -178.40577 36962 ft 487 kts 121°
2026-04-29 04:05 -19.64814 -178.34242 36962 ft 487 kts 121°
2026-04-29 04:05 -19.68011 -178.27898 36962 ft 488 kts 121°
2026-04-29 04:06 -19.71187 -178.21590 36963 ft 488 kts 121°
2026-04-29 04:06 -19.74379 -178.15240 36961 ft 487 kts 121°
2026-04-29 04:07 -19.77535 -178.08957 36962 ft 487 kts 121°
2026-04-29 04:07 -19.80722 -178.02604 36962 ft 488 kts 121°
2026-04-29 04:08 -19.83912 -177.96239 36963 ft 488 kts 121°
2026-04-29 04:08 -19.87101 -177.89869 36969 ft 488 kts 121°
2026-04-29 04:09 -19.90290 -177.83491 36972 ft 488 kts 121°
2026-04-29 04:09 -19.93476 -177.77113 36971 ft 488 kts 121°
2026-04-29 04:10 -19.96659 -177.70734 36974 ft 488 kts 121°
2026-04-29 04:10 -19.99799 -177.64443 36468 ft 480 kts 121°
2026-04-29 04:11 -20.01414 -177.61286 35341 ft 489 kts 121°
2026-04-29 04:11 -20.03040 -177.58102 34221 ft 490 kts 121°
2026-04-29 04:11 -20.04665 -177.54915 33144 ft 490 kts 120°
2026-04-29 04:11 -20.06286 -177.51734 32072 ft 489 kts 120°
2026-04-29 04:12 -20.07904 -177.48556 31007 ft 487 kts 120°
2026-04-29 04:12 -20.09514 -177.45393 29947 ft 484 kts 120°
2026-04-29 04:12 -20.11112 -177.42252 28893 ft 482 kts 120°
2026-04-29 04:12 -20.12701 -177.39126 27843 ft 478 kts 120°
2026-04-29 04:13 -20.14279 -177.36020 26804 ft 475 kts 120°
2026-04-29 04:13 -20.15844 -177.32941 25764 ft 470 kts 120°
2026-04-29 04:13 -20.17372 -177.29930 24760 ft 466 kts 120°
2026-04-29 04:13 -20.18904 -177.26909 23740 ft 461 kts 120°
2026-04-29 04:14 -20.20419 -177.23920 22730 ft 455 kts 120°
2026-04-29 04:14 -20.21913 -177.20973 21735 ft 449 kts 120°
2026-04-29 04:14 -20.23385 -177.18066 20752 ft 443 kts 120°
2026-04-29 04:14 -20.24367 -177.16126 20088 ft 439 kts 120°
2026-04-29 04:15 -20.25807 -177.13281 19132 ft 431 kts 120°
2026-04-29 04:15 -20.27215 -177.10497 18189 ft 424 kts 120°
2026-04-29 04:15 -20.28584 -177.07789 17266 ft 416 kts 120°
2026-04-29 04:15 -20.29941 -177.05104 16353 ft 408 kts 120°
2026-04-29 04:16 -20.31276 -177.02463 15444 ft 401 kts 120°
2026-04-29 04:16 -20.32587 -176.99865 14554 ft 394 kts 120°
2026-04-29 04:16 -20.33875 -176.97313 13666 ft 388 kts 120°
2026-04-29 04:16 -20.35142 -176.94800 12794 ft 382 kts 120°
2026-04-29 04:17 -20.36389 -176.92326 11952 ft 376 kts 120°
2026-04-29 04:17 -20.37602 -176.89919 11429 ft 361 kts 120°
2026-04-29 04:17 -20.38764 -176.87612 11045 ft 345 kts 120°
2026-04-29 04:17 -20.39884 -176.85388 10794 ft 335 kts 120°
2026-04-29 04:18 -20.40971 -176.83229 10591 ft 325 kts 120°
2026-04-29 04:18 -20.42020 -176.81144 10416 ft 314 kts 120°
2026-04-29 04:18 -20.43034 -176.79128 10242 ft 304 kts 120°
2026-04-29 04:18 -20.44004 -176.77199 10086 ft 295 kts 120°
2026-04-29 04:19 -20.44981 -176.75256 9727 ft 303 kts 120°
2026-04-29 04:19 -20.46003 -176.73221 9301 ft 319 kts 120°
2026-04-29 04:19 -20.47079 -176.71080 8870 ft 335 kts 120°
2026-04-29 04:19 -20.48199 -176.68847 8460 ft 344 kts 120°
2026-04-29 04:20 -20.49343 -176.66568 8061 ft 355 kts 120°
2026-04-29 04:20 -20.50526 -176.64211 7992 ft 363 kts 119°
2026-04-29 04:20 -20.51728 -176.61813 7988 ft 368 kts 119°
2026-04-29 04:20 -20.52937 -176.59401 7995 ft 369 kts 119°
2026-04-29 04:21 -20.54132 -176.57014 7997 ft 369 kts 119°
2026-04-29 04:21 -20.55342 -176.54599 7997 ft 369 kts 120°
2026-04-29 04:21 -20.56552 -176.52181 7998 ft 369 kts 119°
2026-04-29 04:21 -20.57762 -176.49763 7998 ft 369 kts 119°
2026-04-29 04:22 -20.58971 -176.47345 7999 ft 369 kts 119°
2026-04-29 04:22 -20.60181 -176.44926 7998 ft 369 kts 119°
2026-04-29 04:22 -20.61388 -176.42511 7998 ft 369 kts 119°
2026-04-29 04:22 -20.62600 -176.40085 7998 ft 369 kts 119°
2026-04-29 04:23 -20.63807 -176.37668 7999 ft 369 kts 119°
2026-04-29 04:23 -20.65013 -176.35251 7998 ft 369 kts 119°
2026-04-29 04:23 -20.66217 -176.32825 7984 ft 369 kts 117°
2026-04-29 04:23 -20.66902 -176.30195 7907 ft 371 kts 97°
2026-04-29 04:24 -20.67322 -176.27489 7778 ft 368 kts 110°
2026-04-29 04:24 -20.68357 -176.25070 7567 ft 356 kts 119°
2026-04-29 04:24 -20.69512 -176.22773 7276 ft 346 kts 120°
2026-04-29 04:24 -20.70638 -176.20546 6994 ft 336 kts 120°
2026-04-29 04:25 -20.71741 -176.18378 6720 ft 326 kts 120°
2026-04-29 04:25 -20.72804 -176.16286 6447 ft 316 kts 120°
2026-04-29 04:25 -20.73836 -176.14255 6189 ft 307 kts 120°
2026-04-29 04:25 -20.74843 -176.12287 5991 ft 296 kts 120°
2026-04-29 04:26 -20.75837 -176.10404 5823 ft 285 kts 121°
2026-04-29 04:26 -20.76801 -176.08585 5637 ft 276 kts 121°
2026-04-29 04:26 -20.77720 -176.06848 5456 ft 268 kts 121°
2026-04-29 04:26 -20.78623 -176.05143 5274 ft 259 kts 121°
2026-04-29 04:27 -20.79495 -176.03492 5087 ft 251 kts 121°
2026-04-29 04:27 -20.80336 -176.01891 4893 ft 243 kts 121°
2026-04-29 04:27 -20.81154 -176.00338 4706 ft 237 kts 121°
2026-04-29 04:27 -20.81952 -175.98827 4516 ft 230 kts 121°
2026-04-29 04:28 -20.82722 -175.97364 4325 ft 222 kts 121°
2026-04-29 04:28 -20.83474 -175.95936 4147 ft 220 kts 121°
2026-04-29 04:28 -20.84233 -175.94502 3951 ft 221 kts 121°
2026-04-29 04:28 -20.84989 -175.93073 3757 ft 220 kts 121°
2026-04-29 04:29 -20.85729 -175.91674 3565 ft 219 kts 121°
2026-04-29 04:29 -20.86477 -175.90259 3375 ft 217 kts 121°
2026-04-29 04:29 -20.87219 -175.88861 3182 ft 216 kts 121°
2026-04-29 04:29 -20.87958 -175.87469 2991 ft 215 kts 121°
2026-04-29 04:30 -20.88696 -175.86084 2792 ft 213 kts 121°
2026-04-29 04:30 -20.89432 -175.84705 2604 ft 213 kts 121°
2026-04-29 04:30 -20.90900 -175.81956 2503 ft 212 kts 121°
2026-04-29 04:31 -20.91633 -175.80582 2497 ft 212 kts 121°
2026-04-29 04:31 -20.92368 -175.79209 2503 ft 213 kts 121°
2026-04-29 04:31 -20.93102 -175.77837 2497 ft 212 kts 121°
2026-04-29 04:31 -20.93836 -175.76466 2506 ft 213 kts 121°
2026-04-29 04:32 -20.94572 -175.75088 2502 ft 213 kts 121°
2026-04-29 04:32 -20.95308 -175.73714 2503 ft 213 kts 121°
2026-04-29 04:32 -20.96038 -175.72353 2499 ft 213 kts 121°
2026-04-29 04:32 -20.96783 -175.70963 2502 ft 212 kts 121°
2026-04-29 04:33 -20.97518 -175.69591 2499 ft 213 kts 121°
2026-04-29 04:33 -20.98246 -175.68235 2494 ft 212 kts 121°
2026-04-29 04:33 -20.98983 -175.66864 2499 ft 213 kts 121°
2026-04-29 04:33 -20.99718 -175.65490 2500 ft 212 kts 121°
2026-04-29 04:34 -21.00452 -175.64121 2498 ft 212 kts 121°
2026-04-29 04:34 -21.01201 -175.62722 2501 ft 225 kts 121°
2026-04-29 04:34 -21.02014 -175.61213 2494 ft 243 kts 121°
2026-04-29 04:34 -21.02873 -175.59618 2494 ft 251 kts 121°
2026-04-29 04:35 -21.03713 -175.57957 2493 ft 254 kts 115°
2026-04-29 04:35 -21.04417 -175.56215 2494 ft 255 kts 114°
2026-04-29 04:35 -21.05098 -175.54481 2497 ft 256 kts 114°
2026-04-29 04:35 -21.05784 -175.52734 2497 ft 255 kts 114°
2026-04-29 04:36 -21.06472 -175.50986 2498 ft 255 kts 114°
2026-04-29 04:36 -21.07157 -175.49236 2499 ft 255 kts 114°
2026-04-29 04:36 -21.07847 -175.47481 2497 ft 255 kts 114°
2026-04-29 04:36 -21.08534 -175.45729 2492 ft 255 kts 114°
2026-04-29 04:37 -21.08976 -175.44601 2492 ft 255 kts 114°
2026-04-29 04:37 -21.09663 -175.42849 2491 ft 255 kts 114°
2026-04-29 04:37 -21.10353 -175.41095 2490 ft 255 kts 114°
2026-04-29 04:37 -21.10989 -175.39326 2491 ft 255 kts 111°
2026-04-29 04:38 -21.11639 -175.37563 2488 ft 250 kts 114°
2026-04-29 04:38 -21.12217 -175.35864 2499 ft 235 kts 112°
2026-04-29 04:38 -21.12856 -175.34326 2518 ft 218 kts 118°
2026-04-29 04:38 -21.13561 -175.32963 2510 ft 200 kts 121°
2026-04-29 04:39 -21.14254 -175.31737 2497 ft 184 kts 123°
2026-04-29 04:39 -21.14911 -175.30609 2493 ft 175 kts 123°
2026-04-29 04:39 -21.15555 -175.29510 2491 ft 173 kts 123°
2026-04-29 04:39 -21.16198 -175.28414 2492 ft 173 kts 123°
2026-04-29 04:40 -21.16836 -175.27332 2458 ft 174 kts 123°
2026-04-29 04:40 -21.17479 -175.26236 2261 ft 174 kts 123°
2026-04-29 04:40 -21.18123 -175.25143 2055 ft 173 kts 123°
2026-04-29 04:40 -21.18763 -175.24054 1841 ft 173 kts 123°
2026-04-29 04:41 -21.19400 -175.22971 1619 ft 168 kts 123°
2026-04-29 04:41 -21.19995 -175.21958 1418 ft 156 kts 123°
2026-04-29 04:41 -21.20558 -175.21004 1219 ft 148 kts 123°
2026-04-29 04:41 -21.21102 -175.20079 1022 ft 147 kts 122°
2026-04-29 04:42 -21.21646 -175.19153 809 ft 146 kts 123°
2026-04-29 04:42 -21.22181 -175.18236 624 ft 144 kts 122°
2026-04-29 04:42 -21.22706 -175.17335 414 ft 141 kts 123°
2026-04-29 04:42 -21.23230 -175.16445 227 ft 141 kts 122°
2026-04-29 04:43 -21.23734 -175.15594 108 ft 129 kts 123°
2026-04-29 04:43 -21.24114 -175.14939 104 ft 78 kts 122°
2026-04-29 04:43 -21.24333 -175.14566 105 ft 31 kts 121°
2026-04-29 04:43 -21.24428 -175.14401 104 ft 18 kts 115°
2026-04-29 04:44 -21.24381 -175.14309 100 ft 18 kts 31°
2026-04-29 04:44 -21.24285 -175.14242 96 ft 8 kts 33°
2026-04-29 04:44 -21.24254 -175.14228 97 ft 4 kts
2026-04-29 04:44 -21.24224 -175.14237 96 ft 5 kts 358°
2026-04-29 04:45 -21.24206 -175.14219 94 ft 3 kts 73°
2026-04-29 04:45 -21.24206 -175.14205 95 ft 0 kts 91°